contact:dominique.lefevre@mio.osupytheas.fr, maurice.libes@osupytheas.fr, didier.mallarino@osupytheas.fr
Project:EMSO http://www.emso-fr.org/EMSO-France
Depth: 2436.0 m
Title:EMSO Ligure Ouest : Data MII capteur CSTAR
DateTime,Latitude,Longitude,Instrument_Serial,Reference_Counts,Signal_Counts,Corrected_Signal_raw_counts,Calculated_Beam_c_inverse_meters,Internal_thermistor_counts
DateTime,Latitude,Longitude,Instrument_Serial,Reference_Counts,Signal_Counts,Corrected_Signal_raw_counts,Calculated_Beam_c_inverse_meters,Internal_thermistor_counts
2019-07-24T00:02:23,42.805,6.029,CST-1368DR,8557,11970,15455,0.041,551
2019-07-24T00:05:25,42.805,6.029,CST-1368DR,8557,11970,15456,0.041,551
2019-07-24T00:08:27,42.805,6.029,CST-1368DR,8557,11971,15458,0.041,551
2019-07-24T00:11:29,42.805,6.029,CST-1368DR,8557,11970,15456,0.041,551
2019-07-24T00:14:30,42.805,6.029,CST-1368DR,8557,11970,15456,0.041,551
2019-07-24T00:17:32,42.805,6.029,CST-1368DR,8557,11970,15456,0.041,551
2019-07-24T00:20:34,42.805,6.029,CST-1368DR,8557,11970,15455,0.041,551
2019-07-24T00:23:36,42.805,6.029,CST-1368DR,8557,11969,15455,0.041,551
2019-07-24T00:26:37,42.805,6.029,CST-1368DR,8557,11970,15456,0.041,551
2019-07-24T00:29:39,42.805,6.029,CST-1368DR,8556,11971,15459,0.040,551
2019-07-24T00:32:41,42.805,6.029,CST-1368DR,8556,11970,15458,0.041,551
2019-07-24T00:35:43,42.805,6.029,CST-1368DR,8556,11969,15457,0.041,551
2019-07-24T00:38:44,42.805,6.029,CST-1368DR,8556,11970,15458,0.041,551
2019-07-24T00:41:46,42.805,6.029,CST-1368DR,8557,11970,15455,0.041,551
2019-07-24T00:44:48,42.805,6.029,CST-1368DR,8556,11970,15457,0.041,551
2019-07-24T00:47:50,42.805,6.029,CST-1368DR,8556,11970,15457,0.041,551
2019-07-24T00:50:51,42.805,6.029,CST-1368DR,8556,11970,15457,0.041,550
2019-07-24T00:53:53,42.805,6.029,CST-1368DR,8556,11970,15457,0.041,551
2019-07-24T00:56:55,42.805,6.029,CST-1368DR,8556,11969,15456,0.041,551
2019-07-24T00:59:57,42.805,6.029,CST-1368DR,8556,11970,15458,0.041,551
2019-07-24T01:02:58,42.805,6.029,CST-1368DR,8556,11969,15457,0.041,551
2019-07-24T01:06:00,42.805,6.029,CST-1368DR,8556,11970,15457,0.041,550
2019-07-24T01:09:02,42.805,6.029,CST-1368DR,8556,11970,15458,0.041,550
2019-07-24T01:12:04,42.805,6.029,CST-1368DR,8556,11970,15458,0.041,551
2019-07-24T01:15:05,42.805,6.029,CST-1368DR,8556,11969,15456,0.041,551
2019-07-24T01:18:07,42.805,6.029,CST-1368DR,8556,11970,15458,0.041,551
2019-07-24T01:21:09,42.805,6.029,CST-1368DR,8556,11969,15456,0.041,551
2019-07-24T01:24:11,42.805,6.029,CST-1368DR,8556,11970,15457,0.041,551
2019-07-24T01:27:12,42.805,6.029,CST-1368DR,8556,11970,15457,0.041,551
2019-07-24T01:30:14,42.805,6.029,CST-1368DR,8556,11969,15457,0.041,551
2019-07-24T01:33:16,42.805,6.029,CST-1368DR,8556,11970,15457,0.041,551
2019-07-24T01:36:18,42.805,6.029,CST-1368DR,8556,11970,15457,0.041,551
2019-07-24T01:39:19,42.805,6.029,CST-1368DR,8556,11970,15457,0.041,551
2019-07-24T01:42:21,42.805,6.029,CST-1368DR,8556,11969,15457,0.041,551
2019-07-24T01:45:23,42.805,6.029,CST-1368DR,8556,11968,15456,0.041,551
2019-07-24T01:48:25,42.805,6.029,CST-1368DR,8556,11971,15459,0.040,551
2019-07-24T01:51:27,42.805,6.029,CST-1368DR,8556,11969,15456,0.041,551
2019-07-24T01:54:28,42.805,6.029,CST-1368DR,8556,11969,15457,0.041,551
2019-07-24T01:57:30,42.805,6.029,CST-1368DR,8556,11969,15456,0.041,551
2019-07-24T02:00:32,42.805,6.029,CST-1368DR,8556,11970,15458,0.041,551
2019-07-24T02:03:34,42.805,6.029,CST-1368DR,8556,11970,15458,0.041,551
2019-07-24T02:06:35,42.805,6.029,CST-1368DR,8556,11969,15457,0.041,551
2019-07-24T02:09:37,42.805,6.029,CST-1368DR,8556,11968,15456,0.041,550
2019-07-24T02:12:39,42.805,6.029,CST-1368DR,8556,11969,15457,0.041,551
2019-07-24T02:15:41,42.805,6.029,CST-1368DR,8556,11969,15457,0.041,551
2019-07-24T02:18:42,42.805,6.029,CST-1368DR,8556,11969,15457,0.041,551
2019-07-24T02:21:44,42.805,6.029,CST-1368DR,8556,11969,15456,0.041,551
2019-07-24T02:24:46,42.805,6.029,CST-1368DR,8556,11970,15457,0.041,551
2019-07-24T02:27:48,42.805,6.029,CST-1368DR,8556,11969,15456,0.041,551
2019-07-24T02:30:49,42.805,6.029,CST-1368DR,8556,11968,15455,0.041,551
2019-07-24T02:33:51,42.805,6.029,CST-1368DR,8556,11969,15457,0.041,551
2019-07-24T02:36:53,42.805,6.029,CST-1368DR,8556,11968,15455,0.041,551
2019-07-24T02:39:55,42.805,6.029,CST-1368DR,8556,11965,15451,0.042,551
2019-07-24T02:42:57,42.805,6.029,CST-1368DR,8556,11969,15456,0.041,551
2019-07-24T02:45:58,42.805,6.029,CST-1368DR,8556,11968,15456,0.041,551
2019-07-24T02:49:00,42.805,6.029,CST-1368DR,8556,11969,15456,0.041,551
2019-07-24T02:52:02,42.805,6.029,CST-1368DR,8555,11968,15456,0.041,551
2019-07-24T02:55:04,42.805,6.029,CST-1368DR,8556,11965,15451,0.042,551
2019-07-24T02:58:05,42.805,6.029,CST-1368DR,8555,11969,15458,0.041,551
2019-07-24T03:01:07,42.805,6.029,CST-1368DR,8555,11967,15456,0.041,550
2019-07-24T03:04:09,42.805,6.029,CST-1368DR,8555,11968,15457,0.041,551
2019-07-24T03:07:11,42.805,6.029,CST-1368DR,8555,11969,15458,0.041,551
2019-07-24T03:10:12,42.805,6.029,CST-1368DR,8555,11965,15453,0.042,551
2019-07-24T03:13:14,42.805,6.029,CST-1368DR,8555,11967,15456,0.041,551
2019-07-24T03:16:16,42.805,6.029,CST-1368DR,8555,11969,15458,0.041,551
2019-07-24T03:19:18,42.805,6.029,CST-1368DR,8555,11968,15456,0.041,551
2019-07-24T03:22:19,42.805,6.029,CST-1368DR,8555,11969,15458,0.041,551
2019-07-24T03:25:22,42.805,6.029,CST-1368DR,8555,11968,15457,0.041,551
2019-07-24T03:28:23,42.805,6.029,CST-1368DR,8555,11968,15457,0.041,551
2019-07-24T03:31:26,42.805,6.029,CST-1368DR,8555,11967,15456,0.041,551
2019-07-24T03:34:28,42.805,6.029,CST-1368DR,8555,11969,15458,0.041,551
2019-07-24T03:37:29,42.805,6.029,CST-1368DR,8555,11968,15457,0.041,551
2019-07-24T03:40:31,42.805,6.029,CST-1368DR,8555,11966,15454,0.042,551
2019-07-24T03:43:33,42.805,6.029,CST-1368DR,8555,11966,15454,0.042,550
2019-07-24T03:46:35,42.805,6.029,CST-1368DR,8555,11967,15456,0.041,551
2019-07-24T03:49:36,42.805,6.029,CST-1368DR,8555,11966,15454,0.042,551
2019-07-24T03:52:38,42.805,6.029,CST-1368DR,8555,11966,15455,0.041,551
2019-07-24T03:55:40,42.805,6.029,CST-1368DR,8555,11969,15458,0.041,551
2019-07-24T03:58:42,42.805,6.029,CST-1368DR,8555,11964,15452,0.042,551
2019-07-24T04:01:43,42.805,6.029,CST-1368DR,8555,11968,15457,0.041,551
2019-07-24T04:04:45,42.805,6.029,CST-1368DR,8555,11968,15457,0.041,551
2019-07-24T04:07:47,42.805,6.029,CST-1368DR,8555,11968,15456,0.041,551
2019-07-24T04:10:49,42.805,6.029,CST-1368DR,8555,11968,15457,0.041,551
2019-07-24T04:13:50,42.805,6.029,CST-1368DR,8555,11968,15457,0.041,551
2019-07-24T04:16:52,42.805,6.029,CST-1368DR,8555,11966,15454,0.042,551
2019-07-24T04:19:54,42.805,6.029,CST-1368DR,8555,11967,15456,0.041,551
2019-07-24T04:22:56,42.805,6.029,CST-1368DR,8555,11968,15457,0.041,551
2019-07-24T04:25:57,42.805,6.029,CST-1368DR,8555,11968,15457,0.041,551
2019-07-24T04:28:59,42.805,6.029,CST-1368DR,8555,11968,15456,0.041,551
2019-07-24T04:32:01,42.805,6.029,CST-1368DR,8555,11968,15457,0.041,551
2019-07-24T04:35:03,42.805,6.029,CST-1368DR,8554,11968,15458,0.041,550
2019-07-24T04:38:04,42.805,6.029,CST-1368DR,8554,11966,15456,0.041,551
2019-07-24T04:41:06,42.805,6.029,CST-1368DR,8555,11967,15455,0.041,551
2019-07-24T04:44:08,42.805,6.029,CST-1368DR,8554,11965,15455,0.041,551
2019-07-24T04:47:10,42.805,6.029,CST-1368DR,8554,11968,15458,0.041,551
2019-07-24T04:50:12,42.805,6.029,CST-1368DR,8554,11968,15459,0.040,551
2019-07-24T04:53:13,42.805,6.029,CST-1368DR,8554,11968,15458,0.041,551
2019-07-24T04:56:15,42.805,6.029,CST-1368DR,8554,11969,15459,0.040,550
2019-07-24T04:59:17,42.805,6.029,CST-1368DR,8555,11968,15457,0.041,551
2019-07-24T05:02:19,42.805,6.029,CST-1368DR,8554,11968,15458,0.041,551
2019-07-24T05:05:20,42.805,6.029,CST-1368DR,8554,11967,15457,0.041,550
2019-07-24T05:08:22,42.805,6.029,CST-1368DR,8554,11966,15456,0.041,551
2019-07-24T05:11:24,42.805,6.029,CST-1368DR,8554,11965,15455,0.041,551
2019-07-24T05:14:26,42.805,6.029,CST-1368DR,8554,11962,15451,0.042,551
2019-07-24T05:17:27,42.805,6.029,CST-1368DR,8554,11967,15457,0.041,551
2019-07-24T05:20:29,42.805,6.029,CST-1368DR,8554,11966,15456,0.041,551
2019-07-24T05:23:31,42.805,6.029,CST-1368DR,8554,11966,15456,0.041,551
2019-07-24T05:26:33,42.805,6.029,CST-1368DR,8554,11967,15458,0.041,551
2019-07-24T05:29:34,42.805,6.029,CST-1368DR,8554,11967,15457,0.041,551
2019-07-24T05:32:36,42.805,6.029,CST-1368DR,8554,11967,15457,0.041,551
2019-07-24T05:35:38,42.805,6.029,CST-1368DR,8554,11966,15456,0.041,551
2019-07-24T05:38:40,42.805,6.029,CST-1368DR,8554,11966,15455,0.041,551
2019-07-24T05:41:42,42.805,6.029,CST-1368DR,8554,11967,15457,0.041,551
2019-07-24T05:44:43,42.805,6.029,CST-1368DR,8554,11968,15458,0.041,551
2019-07-24T05:47:45,42.805,6.029,CST-1368DR,8554,11968,15458,0.041,551
2019-07-24T05:50:47,42.805,6.029,CST-1368DR,8554,11968,15458,0.041,551
2019-07-24T05:53:49,42.805,6.029,CST-1368DR,8554,11968,15458,0.041,551
2019-07-24T05:56:51,42.805,6.029,CST-1368DR,8554,11966,15456,0.041,551
2019-07-24T05:59:52,42.805,6.029,CST-1368DR,8554,11968,15459,0.040,551
2019-07-24T06:02:54,42.805,6.029,CST-1368DR,8554,11966,15456,0.041,551
2019-07-24T06:05:56,42.805,6.029,CST-1368DR,8554,11966,15455,0.041,550
2019-07-24T06:08:58,42.805,6.029,CST-1368DR,8554,11967,15457,0.041,551
2019-07-24T06:11:59,42.805,6.029,CST-1368DR,8554,11968,15458,0.041,550
2019-07-24T06:15:01,42.805,6.029,CST-1368DR,8554,11966,15456,0.041,550
2019-07-24T06:18:03,42.805,6.029,CST-1368DR,8554,11966,15456,0.041,551
2019-07-24T06:21:05,42.805,6.029,CST-1368DR,8554,11968,15458,0.041,551
2019-07-24T06:24:06,42.805,6.029,CST-1368DR,8554,11966,15456,0.041,551
2019-07-24T06:27:08,42.805,6.029,CST-1368DR,8554,11965,15454,0.042,551
2019-07-24T06:30:10,42.805,6.029,CST-1368DR,8554,11967,15457,0.041,551
2019-07-24T06:33:12,42.805,6.029,CST-1368DR,8554,11968,15459,0.040,551
2019-07-24T06:36:13,42.805,6.029,CST-1368DR,8554,11968,15458,0.041,551
2019-07-24T06:39:15,42.805,6.029,CST-1368DR,8554,11967,15457,0.041,551
2019-07-24T06:42:17,42.805,6.029,CST-1368DR,8554,11964,15453,0.042,551
2019-07-24T06:45:18,42.805,6.029,CST-1368DR,8554,11966,15456,0.041,551
2019-07-24T06:48:20,42.805,6.029,CST-1368DR,8554,11966,15456,0.041,551
2019-07-24T06:51:21,42.805,6.029,CST-1368DR,8554,11965,15455,0.041,551
2019-07-24T06:54:23,42.805,6.029,CST-1368DR,8554,11966,15456,0.041,551
2019-07-24T06:57:25,42.805,6.029,CST-1368DR,8554,11966,15456,0.041,551
2019-07-24T07:00:26,42.805,6.029,CST-1368DR,8553,11966,15458,0.041,551
2019-07-24T07:03:28,42.805,6.029,CST-1368DR,8554,11964,15453,0.042,551
2019-07-24T07:06:30,42.805,6.029,CST-1368DR,8554,11967,15457,0.041,551
2019-07-24T07:09:31,42.805,6.029,CST-1368DR,8553,11966,15458,0.041,551
2019-07-24T07:12:33,42.805,6.029,CST-1368DR,8553,11962,15452,0.042,551
2019-07-24T07:15:34,42.805,6.029,CST-1368DR,8553,11965,15456,0.041,550
2019-07-24T07:18:36,42.805,6.029,CST-1368DR,8553,11967,15458,0.041,551
2019-07-24T07:21:38,42.805,6.029,CST-1368DR,8553,11966,15457,0.041,551
2019-07-24T07:24:39,42.805,6.029,CST-1368DR,8554,11966,15456,0.041,551
2019-07-24T07:27:41,42.805,6.029,CST-1368DR,8553,11967,15459,0.040,551
2019-07-24T07:30:43,42.805,6.029,CST-1368DR,8553,11967,15458,0.041,551
2019-07-24T07:33:44,42.805,6.029,CST-1368DR,8553,11967,15459,0.040,551
2019-07-24T07:36:46,42.805,6.029,CST-1368DR,8553,11966,15457,0.041,551
2019-07-24T07:39:48,42.805,6.029,CST-1368DR,8553,11966,15458,0.041,551
2019-07-24T07:42:49,42.805,6.029,CST-1368DR,8553,11965,15457,0.041,551
2019-07-24T07:45:51,42.805,6.029,CST-1368DR,8553,11963,15454,0.042,550
2019-07-24T07:48:52,42.805,6.029,CST-1368DR,8553,11966,15457,0.041,551
2019-07-24T07:51:54,42.805,6.029,CST-1368DR,8553,11966,15458,0.041,550
2019-07-24T07:54:56,42.805,6.029,CST-1368DR,8553,11965,15456,0.041,551
2019-07-24T07:57:57,42.805,6.029,CST-1368DR,8553,11966,15457,0.041,551
2019-07-24T08:00:59,42.805,6.029,CST-1368DR,8553,11965,15456,0.041,551
2019-07-24T08:04:00,42.805,6.029,CST-1368DR,8553,11966,15457,0.041,551
2019-07-24T08:07:02,42.805,6.029,CST-1368DR,8553,11966,15458,0.041,551
2019-07-24T08:10:04,42.805,6.029,CST-1368DR,8553,11966,15457,0.041,551
2019-07-24T08:13:05,42.805,6.029,CST-1368DR,8553,11965,15456,0.041,551
2019-07-24T08:16:07,42.805,6.029,CST-1368DR,8553,11965,15456,0.041,551
2019-07-24T08:19:09,42.805,6.029,CST-1368DR,8553,11964,15455,0.041,551
2019-07-24T08:22:10,42.805,6.029,CST-1368DR,8553,11966,15457,0.041,551
2019-07-24T08:25:12,42.805,6.029,CST-1368DR,8553,11966,15457,0.041,551
2019-07-24T08:28:13,42.805,6.029,CST-1368DR,8553,11966,15457,0.041,551
2019-07-24T08:31:15,42.805,6.029,CST-1368DR,8553,11966,15457,0.041,551
2019-07-24T08:34:17,42.805,6.029,CST-1368DR,8553,11961,15451,0.042,551
2019-07-24T08:37:18,42.805,6.029,CST-1368DR,8553,11965,15456,0.041,551
2019-07-24T08:40:20,42.805,6.029,CST-1368DR,8553,11962,15453,0.042,551
2019-07-24T08:43:22,42.805,6.029,CST-1368DR,8553,11961,15451,0.042,551
2019-07-24T08:46:23,42.805,6.029,CST-1368DR,8553,11965,15457,0.041,550
2019-07-24T08:49:25,42.805,6.029,CST-1368DR,8553,11965,15456,0.041,551
2019-07-24T08:52:27,42.805,6.029,CST-1368DR,8553,11963,15454,0.042,551
2019-07-24T08:55:28,42.805,6.029,CST-1368DR,8553,11966,15457,0.041,550
2019-07-24T08:58:30,42.805,6.029,CST-1368DR,8553,11965,15456,0.041,551
2019-07-24T09:01:31,42.805,6.029,CST-1368DR,8553,11965,15456,0.041,551
2019-07-24T09:04:33,42.805,6.029,CST-1368DR,8553,11964,15454,0.042,551
2019-07-24T09:07:35,42.805,6.029,CST-1368DR,8553,11963,15454,0.042,551
2019-07-24T09:10:36,42.805,6.029,CST-1368DR,8553,11965,15456,0.041,551
2019-07-24T09:13:38,42.805,6.029,CST-1368DR,8553,11965,15456,0.041,550
2019-07-24T09:16:40,42.805,6.029,CST-1368DR,8552,11965,15458,0.041,551
2019-07-24T09:19:41,42.805,6.029,CST-1368DR,8553,11965,15456,0.041,551
2019-07-24T09:22:43,42.805,6.029,CST-1368DR,8552,11964,15457,0.041,551
2019-07-24T09:25:44,42.805,6.029,CST-1368DR,8552,11963,15455,0.041,551
2019-07-24T09:28:46,42.805,6.029,CST-1368DR,8552,11965,15457,0.041,551
2019-07-24T09:31:48,42.805,6.029,CST-1368DR,8552,11965,15458,0.041,551
2019-07-24T09:34:49,42.805,6.029,CST-1368DR,8552,11964,15457,0.041,551
2019-07-24T09:37:51,42.805,6.029,CST-1368DR,8552,11964,15457,0.041,551
2019-07-24T09:40:53,42.805,6.029,CST-1368DR,8552,11963,15455,0.041,551
2019-07-24T09:43:54,42.805,6.029,CST-1368DR,8552,11966,15459,0.040,551
2019-07-24T09:46:56,42.805,6.029,CST-1368DR,8552,11965,15458,0.041,551
2019-07-24T09:49:57,42.805,6.029,CST-1368DR,8552,11963,15455,0.041,551
2019-07-24T09:52:59,42.805,6.029,CST-1368DR,8552,11965,15457,0.041,551
2019-07-24T09:56:01,42.805,6.029,CST-1368DR,8552,11963,15455,0.041,551
2019-07-24T09:59:02,42.805,6.029,CST-1368DR,8552,11965,15458,0.041,551
2019-07-24T10:02:04,42.805,6.029,CST-1368DR,8552,11962,15454,0.042,551
2019-07-24T10:05:06,42.805,6.029,CST-1368DR,8552,11963,15456,0.041,551
2019-07-24T10:08:07,42.805,6.029,CST-1368DR,8552,11964,15456,0.041,551
2019-07-24T10:11:09,42.805,6.029,CST-1368DR,8552,11963,15455,0.041,551
2019-07-24T10:14:10,42.805,6.029,CST-1368DR,8552,11964,15457,0.041,551
2019-07-24T10:17:12,42.805,6.029,CST-1368DR,8552,11964,15457,0.041,551
2019-07-24T10:20:14,42.805,6.029,CST-1368DR,8552,11964,15456,0.041,551
2019-07-24T10:23:15,42.805,6.029,CST-1368DR,8552,11963,15456,0.041,551
2019-07-24T10:26:17,42.805,6.029,CST-1368DR,8552,11964,15456,0.041,551
2019-07-24T10:29:19,42.805,6.029,CST-1368DR,8552,11962,15454,0.042,550
2019-07-24T10:32:20,42.805,6.029,CST-1368DR,8552,11958,15449,0.043,551
2019-07-24T10:35:22,42.805,6.029,CST-1368DR,8552,11964,15457,0.041,551
2019-07-24T10:38:24,42.805,6.029,CST-1368DR,8552,11963,15455,0.041,550
2019-07-24T10:41:25,42.805,6.029,CST-1368DR,8552,11963,15455,0.041,551
2019-07-24T10:44:27,42.805,6.029,CST-1368DR,8552,11964,15456,0.041,551
2019-07-24T10:47:28,42.805,6.029,CST-1368DR,8552,11964,15457,0.041,551
2019-07-24T10:50:30,42.805,6.029,CST-1368DR,8552,11962,15454,0.042,550
2019-07-24T10:53:32,42.805,6.029,CST-1368DR,8552,11962,15454,0.042,550
2019-07-24T10:56:33,42.805,6.029,CST-1368DR,8552,11964,15457,0.041,551
2019-07-24T10:59:35,42.805,6.029,CST-1368DR,8551,11962,15456,0.041,551
2019-07-24T11:02:37,42.805,6.029,CST-1368DR,8552,11962,15454,0.042,551
2019-07-24T11:05:38,42.805,6.029,CST-1368DR,8551,11964,15458,0.041,551
2019-07-24T11:08:40,42.805,6.029,CST-1368DR,8551,11963,15457,0.041,551
2019-07-24T11:11:42,42.805,6.029,CST-1368DR,8551,11964,15458,0.041,550
2019-07-24T11:14:43,42.805,6.029,CST-1368DR,8551,11963,15457,0.041,551
2019-07-24T11:17:45,42.805,6.029,CST-1368DR,8551,11963,15457,0.041,551
2019-07-24T11:20:46,42.805,6.029,CST-1368DR,8551,11963,15457,0.041,551
2019-07-24T11:23:48,42.805,6.029,CST-1368DR,8551,11965,15459,0.040,550
2019-07-24T11:26:50,42.805,6.029,CST-1368DR,8551,11964,15458,0.041,551
2019-07-24T11:29:51,42.805,6.029,CST-1368DR,8551,11962,15455,0.041,551
2019-07-24T11:32:53,42.805,6.029,CST-1368DR,8551,11963,15457,0.041,551
2019-07-24T11:35:55,42.805,6.029,CST-1368DR,8551,11962,15455,0.041,551
2019-07-24T11:38:56,42.805,6.029,CST-1368DR,8551,11955,15447,0.044,551
2019-07-24T11:41:58,42.805,6.029,CST-1368DR,8551,11963,15457,0.041,551
2019-07-24T11:44:59,42.805,6.029,CST-1368DR,8551,11963,15457,0.041,551
2019-07-24T11:48:01,42.805,6.029,CST-1368DR,8551,11963,15457,0.041,550
2019-07-24T11:51:03,42.805,6.029,CST-1368DR,8551,11962,15456,0.041,551
2019-07-24T11:54:04,42.805,6.029,CST-1368DR,8551,11963,15457,0.041,551
2019-07-24T11:57:06,42.805,6.029,CST-1368DR,8551,11963,15456,0.041,551
2019-07-24T12:00:08,42.805,6.029,CST-1368DR,8551,11962,15456,0.041,551
2019-07-24T12:03:09,42.805,6.029,CST-1368DR,8551,11963,15457,0.041,551
2019-07-24T12:06:11,42.805,6.029,CST-1368DR,8551,11963,15457,0.041,551
2019-07-24T12:09:13,42.805,6.029,CST-1368DR,8551,11962,15456,0.041,551
2019-07-24T12:12:14,42.805,6.029,CST-1368DR,8551,11964,15458,0.041,551
2019-07-24T12:15:16,42.805,6.029,CST-1368DR,8551,11960,15453,0.042,551
2019-07-24T12:18:17,42.805,6.029,CST-1368DR,8551,11962,15456,0.041,551
2019-07-24T12:21:19,42.805,6.029,CST-1368DR,8551,11962,15455,0.041,551
2019-07-24T12:24:21,42.805,6.029,CST-1368DR,8551,11963,15457,0.041,550
2019-07-24T12:27:23,42.805,6.029,CST-1368DR,8551,11962,15456,0.041,551
2019-07-24T12:30:25,42.805,6.029,CST-1368DR,8551,11962,15456,0.041,551
2019-07-24T12:33:26,42.805,6.029,CST-1368DR,8551,11961,15454,0.042,551
2019-07-24T12:36:28,42.805,6.029,CST-1368DR,8551,11963,15456,0.041,551
2019-07-24T12:39:30,42.805,6.029,CST-1368DR,8551,11961,15455,0.041,551
2019-07-24T12:42:31,42.805,6.029,CST-1368DR,8551,11963,15457,0.041,551
2019-07-24T12:45:33,42.805,6.029,CST-1368DR,8551,11964,15458,0.041,551
2019-07-24T12:48:34,42.805,6.029,CST-1368DR,8551,11963,15457,0.041,551
2019-07-24T12:51:36,42.805,6.029,CST-1368DR,8551,11963,15456,0.041,551
2019-07-24T12:54:38,42.805,6.029,CST-1368DR,8551,11961,15454,0.042,551
2019-07-24T12:57:39,42.805,6.029,CST-1368DR,8551,11962,15455,0.041,551
2019-07-24T13:00:41,42.805,6.029,CST-1368DR,8551,11962,15456,0.041,551
2019-07-24T13:03:42,42.805,6.029,CST-1368DR,8551,11960,15453,0.042,551
2019-07-24T13:06:44,42.805,6.029,CST-1368DR,8551,11962,15456,0.041,551
2019-07-24T13:09:46,42.805,6.029,CST-1368DR,8550,11961,15456,0.041,551
2019-07-24T13:12:47,42.805,6.029,CST-1368DR,8551,11963,15457,0.041,551
2019-07-24T13:15:49,42.805,6.029,CST-1368DR,8550,11962,15457,0.041,551
2019-07-24T13:18:51,42.805,6.029,CST-1368DR,8550,11963,15459,0.040,551
2019-07-24T13:21:52,42.805,6.029,CST-1368DR,8550,11961,15456,0.041,551
2019-07-24T13:24:54,42.805,6.029,CST-1368DR,8550,11963,15459,0.040,551
2019-07-24T13:27:55,42.805,6.029,CST-1368DR,8550,11962,15457,0.041,551
2019-07-24T13:30:57,42.805,6.029,CST-1368DR,8550,11959,15454,0.042,551
2019-07-24T13:33:59,42.805,6.029,CST-1368DR,8550,11961,15456,0.041,551
2019-07-24T13:37:00,42.805,6.029,CST-1368DR,8550,11961,15456,0.041,551
2019-07-24T13:40:02,42.805,6.029,CST-1368DR,8550,11963,15458,0.041,551
2019-07-24T13:43:04,42.805,6.029,CST-1368DR,8550,11962,15457,0.041,551
2019-07-24T13:46:05,42.805,6.029,CST-1368DR,8550,11962,15457,0.041,551
2019-07-24T13:49:07,42.805,6.029,CST-1368DR,8550,11962,15457,0.041,551
2019-07-24T13:52:08,42.805,6.029,CST-1368DR,8550,11962,15457,0.041,550
2019-07-24T13:55:10,42.805,6.029,CST-1368DR,8550,11963,15458,0.041,550
2019-07-24T13:58:12,42.805,6.029,CST-1368DR,8550,11961,15456,0.041,550
2019-07-24T14:01:13,42.805,6.029,CST-1368DR,8550,11961,15456,0.041,551
2019-07-24T14:04:15,42.805,6.029,CST-1368DR,8550,11962,15458,0.041,551
2019-07-24T14:07:17,42.805,6.029,CST-1368DR,8550,11960,15455,0.041,550
2019-07-24T14:10:18,42.805,6.029,CST-1368DR,8550,11963,15458,0.041,551
2019-07-24T14:13:20,42.805,6.029,CST-1368DR,8550,11962,15457,0.041,551
2019-07-24T14:16:21,42.805,6.029,CST-1368DR,8550,11962,15457,0.041,551
2019-07-24T14:19:23,42.805,6.029,CST-1368DR,8550,11962,15458,0.041,551
2019-07-24T14:22:25,42.805,6.029,CST-1368DR,8550,11963,15458,0.041,551
2019-07-24T14:25:26,42.805,6.029,CST-1368DR,8550,11960,15454,0.042,551
2019-07-24T14:28:28,42.805,6.029,CST-1368DR,8550,11960,15455,0.041,551
2019-07-24T14:31:30,42.805,6.029,CST-1368DR,8550,11961,15456,0.041,551
2019-07-24T14:34:31,42.805,6.029,CST-1368DR,8550,11958,15452,0.042,551
2019-07-24T14:37:33,42.805,6.029,CST-1368DR,8550,11960,15455,0.041,551
2019-07-24T14:40:34,42.805,6.029,CST-1368DR,8550,11960,15455,0.041,551
2019-07-24T14:43:36,42.805,6.029,CST-1368DR,8550,11962,15457,0.041,551
2019-07-24T14:46:38,42.805,6.029,CST-1368DR,8550,11962,15457,0.041,551
2019-07-24T14:49:39,42.805,6.029,CST-1368DR,8550,11963,15458,0.041,551
2019-07-24T14:52:41,42.805,6.029,CST-1368DR,8550,11962,15457,0.041,551
2019-07-24T14:55:43,42.805,6.029,CST-1368DR,8549,11961,15458,0.041,551
2019-07-24T14:58:44,42.805,6.029,CST-1368DR,8549,11960,15456,0.041,551
2019-07-24T15:01:46,42.805,6.029,CST-1368DR,8549,11956,15451,0.042,551
2019-07-24T15:04:48,42.805,6.029,CST-1368DR,8549,11959,15455,0.041,551
2019-07-24T15:07:49,42.805,6.029,CST-1368DR,8549,11962,15458,0.041,551
2019-07-24T15:10:51,42.805,6.029,CST-1368DR,8549,11961,15458,0.041,550
2019-07-24T15:13:52,42.805,6.029,CST-1368DR,8549,11961,15457,0.041,551
2019-07-24T15:16:54,42.805,6.029,CST-1368DR,8549,11960,15456,0.041,551
2019-07-24T15:19:56,42.805,6.029,CST-1368DR,8549,11961,15458,0.041,551
2019-07-24T15:22:57,42.805,6.029,CST-1368DR,8549,11961,15458,0.041,551
2019-07-24T15:25:59,42.805,6.029,CST-1368DR,8549,11961,15458,0.041,550
2019-07-24T15:29:01,42.805,6.029,CST-1368DR,8549,11961,15457,0.041,551
2019-07-24T15:32:02,42.805,6.029,CST-1368DR,8549,11957,15452,0.042,551
2019-07-24T15:35:04,42.805,6.029,CST-1368DR,8549,11961,15458,0.041,551
2019-07-24T15:38:05,42.805,6.029,CST-1368DR,8549,11962,15459,0.040,551
2019-07-24T15:41:07,42.805,6.029,CST-1368DR,8549,11961,15458,0.041,551
2019-07-24T15:44:09,42.805,6.029,CST-1368DR,8549,11960,15456,0.041,551
2019-07-24T15:47:10,42.805,6.029,CST-1368DR,8549,11962,15458,0.041,551
2019-07-24T15:50:12,42.805,6.029,CST-1368DR,8549,11961,15458,0.041,551
2019-07-24T15:53:14,42.805,6.029,CST-1368DR,8549,11961,15457,0.041,551
2019-07-24T15:56:15,42.805,6.029,CST-1368DR,8549,11961,15458,0.041,551
2019-07-24T15:59:17,42.805,6.029,CST-1368DR,8549,11961,15457,0.041,551
2019-07-24T16:02:19,42.805,6.029,CST-1368DR,8549,11959,15456,0.041,551
2019-07-24T16:05:20,42.805,6.029,CST-1368DR,8549,11958,15454,0.042,551
2019-07-24T16:08:22,42.805,6.029,CST-1368DR,8549,11959,15455,0.041,551
2019-07-24T16:11:24,42.805,6.029,CST-1368DR,8549,11960,15456,0.041,551
2019-07-24T16:14:25,42.805,6.029,CST-1368DR,8549,11960,15456,0.041,551
2019-07-24T16:17:27,42.805,6.029,CST-1368DR,8549,11962,15458,0.041,551
2019-07-24T16:20:29,42.805,6.029,CST-1368DR,8549,11961,15458,0.041,551
2019-07-24T16:23:30,42.805,6.029,CST-1368DR,8549,11961,15457,0.041,551
2019-07-24T16:26:32,42.805,6.029,CST-1368DR,8549,11961,15457,0.041,551
2019-07-24T16:29:34,42.805,6.029,CST-1368DR,8549,11959,15455,0.041,551
2019-07-24T16:32:35,42.805,6.029,CST-1368DR,8549,11961,15458,0.041,551
2019-07-24T16:35:37,42.805,6.029,CST-1368DR,8549,11960,15457,0.041,551
2019-07-24T16:38:38,42.805,6.029,CST-1368DR,8549,11960,15456,0.041,551